Нексикан

Россия / Магаданская область     62°40′15″N   147°45′33″E
темп.,
°C
ветер,
м/с
пор.,
м/с
влажн.,
%
обл.,
%
осадки,
мм/ч
давл.,
гПа
погр.,
м
12 мая, ср
ср1223:000всв127782 0.8 1016313
02:000всв128097 0.0 1017183
05:00−2св1195100 0.6 1017135
08:00−1в119099 0.7 1016284
11:00+1вюв1176100 0.8 1015709
14:00+2вюв116999 0.1 1014751
17:00+3в116799 0.1 1013647
20:00+3вюв2368100 0.0 1012632
13 мая, чт
чт1323:00+1всв118251 0.0 101210
02:00−1в1187100 0.0 101110
05:00−1юв1184100 0.0 101010
08:00+2ююв2369100 0.0 1008337
11:00+4ю6763100 0.0 10061161
14:00+3ююз3691100 0.4 1005506
17:00+2ююз2398100 1.9 1005348
20:00+3вюв018498 0.1 1005273
14 мая, пт
пт1423:00+2вюв0298100 1.3 1006337
02:00+1з2690100 2.7 1007312
05:00+1зсз1179100 2.7 100813
08:00+1сз2364100 0.1 1010696
11:00−1св2389100 1.8 1013510
14:000св4468100 0.6 1014838
17:00+1св545885 0.6 10141158
20:00+1всв23599 0.0 1015757
15 мая, сб
сб1523:00−2вюв11735 0.0 101710
02:00−3вюв11785 0.0 101810
05:00−3вюв11795 0.0 101810
08:000ююв11645 0.0 1017329
11:00+3ю12515 0.0 1016795
14:00+6ююз23405 0.0 10141348
17:00+8ю23345 0.0 10121725
20:00+8ю24325 0.0 10111697
16 мая, вс
вс1623:00+4в22515 0.0 101211
02:00+2в116248 0.0 101310
05:00+1ю11635 0.0 101310
08:00+4ююз34575 0.0 1012461
11:00+7ююз44483 0.0 10111164
14:00+9ююз33386 0.0 10091704
17:00+10юз223325 0.0 10071957
20:00+10юз113266 0.0 10071871